TimeMST,TemperatureF,Dew PointF,Humidity,Sea Level PressureIn,VisibilityMPH,Wind Direction,Wind SpeedMPH,Gust SpeedMPH,PrecipitationIn,Events,Conditions,WindDirDegrees,DateUTC
12:51 AM,23.0,19.9,88,30.51,10.0,Calm,Calm,-,N/A,,Clear,0,2013-11-26 07:51:00
1:51 AM,23.0,19.0,85,30.51,10.0,East,3.5,-,N/A,,Clear,80,2013-11-26 08:51:00
2:51 AM,23.0,19.9,88,30.49,10.0,Calm,Calm,-,N/A,,Clear,0,2013-11-26 09:51:00
3:51 AM,21.9,19.0,89,30.51,10.0,NE,3.5,-,N/A,,Clear,50,2013-11-26 10:51:00
4:51 AM,21.0,18.0,88,30.51,10.0,NE,3.5,-,N/A,,Clear,50,2013-11-26 11:51:00
5:51 AM,21.0,18.0,88,30.53,10.0,Calm,Calm,-,N/A,,Clear,0,2013-11-26 12:51:00
6:07 AM,19.0,17.1,92,30.45,10.0,Calm,Calm,-,N/A,,Scattered Clouds,0,2013-11-26 13:07:00
6:16 AM,19.9,17.1,89,30.45,5.0,Calm,Calm,-,N/A,,Mostly Cloudy,0,2013-11-26 13:16:00
6:22 AM,19.9,17.1,89,30.45,1.8,Calm,Calm,-,N/A,,Mostly Cloudy,0,2013-11-26 13:22:00
6:31 AM,19.9,18.0,92,30.45,4.0,Calm,Calm,-,N/A,,Mostly Cloudy,0,2013-11-26 13:31:00
6:36 AM,21.9,19.0,89,30.45,1.5,Calm,Calm,-,N/A,,Mostly Cloudy,0,2013-11-26 13:36:00
6:43 AM,21.0,19.0,92,30.45,0.8,Calm,Calm,-,N/A,,Mist,0,2013-11-26 13:43:00
6:48 AM,19.4,17.6,93,30.45,1.2,Calm,Calm,-,N/A,,Scattered Clouds,0,2013-11-26 13:48:00
6:51 AM,19.9,17.1,89,30.54,1.2,Calm,Calm,-,N/A,,Scattered Clouds,0,2013-11-26 13:51:00
6:59 AM,21.0,18.0,88,30.45,2.0,Calm,Calm,-,N/A,,Partly Cloudy,0,2013-11-26 13:59:00
7:05 AM,19.9,18.0,92,30.45,10.0,SE,3.5,-,N/A,,Partly Cloudy,130,2013-11-26 14:05:00
7:51 AM,19.9,16.0,85,30.56,10.0,Calm,Calm,-,N/A,,Clear,0,2013-11-26 14:51:00
8:51 AM,25.0,21.0,85,30.56,10.0,Calm,Calm,-,N/A,,Clear,0,2013-11-26 15:51:00
9:51 AM,28.9,25.0,85,30.56,10.0,Calm,Calm,-,N/A,,Clear,0,2013-11-26 16:51:00
10:51 AM,34.0,25.0,70,30.52,10.0,NW,3.5,-,N/A,,Clear,320,2013-11-26 17:51:00
11:51 AM,37.9,24.1,57,30.48,10.0,NE,3.5,-,N/A,,Clear,40,2013-11-26 18:51:00
12:51 PM,41.0,23.0,49,30.45,10.0,Calm,Calm,-,N/A,,Clear,0,2013-11-26 19:51:00
1:51 PM,43.0,23.0,45,30.42,10.0,Calm,Calm,-,N/A,,Clear,0,2013-11-26 20:51:00
2:51 PM,45.0,21.9,40,30.39,10.0,Calm,Calm,-,N/A,,Clear,0,2013-11-26 21:51:00
3:51 PM,46.0,21.9,39,30.38,10.0,Calm,Calm,-,N/A,,Clear,0,2013-11-26 22:51:00
4:51 PM,43.0,23.0,45,30.38,10.0,Calm,Calm,-,N/A,,Clear,0,2013-11-26 23:51:00
5:51 PM,37.0,25.0,62,30.39,10.0,SSW,3.5,-,N/A,,Clear,200,2013-11-27 00:51:00
6:51 PM,30.0,23.0,75,30.42,10.0,Calm,Calm,-,N/A,,Clear,0,2013-11-27 01:51:00
7:51 PM,30.0,23.0,75,30.42,10.0,Calm,Calm,-,N/A,,Clear,0,2013-11-27 02:51:00
8:51 PM,28.9,23.0,78,30.40,10.0,Calm,Calm,-,N/A,,Clear,0,2013-11-27 03:51:00
9:51 PM,26.1,21.9,84,30.39,10.0,East,3.5,-,N/A,,Clear,80,2013-11-27 04:51:00
10:51 PM,30.0,23.0,75,30.36,10.0,Calm,Calm,-,N/A,,Clear,0,2013-11-27 05:51:00
11:51 PM,24.1,21.0,88,30.37,10.0,Calm,Calm,-,N/A,,Clear,0,2013-11-27 06:51:00